CAPE
0 0 0 0 0 0 0 0 0 1 5 7 6 3 5 12 1 0 1 1 0 1
0 0 0 0 0 0 0 0 1 8 7 14 8 3 8 10 11 5 7 10 5 7
0 0 0 0 0 0 0 7 6 8 2 0 1 1 12 19 18 20 17 15 14 11
6 1 0 0 0 4 10 1 0 1 2 2 2 2 8 12 10 8 9 6 3 1
7 3 0 0 1 6 12 7 2 2 3 5 6 16 32 20 5 2 2 1 0 0
6 5 10 8 5 4 6 14 12 15 20 11 1 0 0 0 0 0 0 0 0 0
6 6 12 14 9 17 13 11 12 15 18 18 0 0 0 0 0 0 0 0 0 0
24 9 9 1 0 16 20 12 19 6 1 0 0 0 0 0 0 0 0 0 0 0
8 11 15 20 10 1 0 0 0 0 0 0 0 0 0 0 0 0 0 0 0 0
2 0 0 0 0 0 0 0 0 0 0 0 0 0 0 0 0 0 0 0 0 0
0 0 0 0 0 0 0 0 0 0 0 0 0 0 0 0 0 0 0 2 0 2
1 0 0 0 0 0 0 0 0 0 0 0 0 0 0 0 1 2 2 4 4 4
0 0 0 0 0 0 0 0 0 0 0 2 0 1 3 2 3 5 4 2 5 4
0 0 0 0 0 0 0 2 2 2 3 6 5 6 6 4 2 8 7 7 5 8
CIN
0 0 0 0 0 0 0 0 0 -1 0 0 0 -1 0 0 0 0 0 0 0 0
0 0 0 0 0 0 0 0 -1 -1 -1 0 0 -1 0 0 0 0 0 0 0 0
0 -1 0 0 0 0 0 -1 -1 -3 -2 0 0 0 0 0 0 0 0 0 0 0
-1 -1 0 0 0 -1 -1 -2 0 0 0 0 0 0 0 0 -1 -1 -1 -2 -2 -4
0 -1 0 -2 -1 -1 -1 -2 0 0 0 0 0 -1 -1 -2 -2 -2 -3 -3 0 0
-2 -2 -1 0 0 0 0 0 0 -1 -1 -1 -1 0 0 0 0 0 0 0 0 0
-2 -4 -1 0 0 0 -1 -2 -2 -1 -1 0 0 0 0 0 0 0 0 0 0 0
-1 0 -1 0 0 -1 -1 -1 -1 0 -1 0 0 0 0 0 0 0 0 0 0 0
-1 -1 -1 -1 -1 -1 0 0 0 0 0 0 0 0 0 0 0 0 0 0 0 0
-2 -2 -1 0 0 0 0 0 0 0 0 0 0 0 0 0 0 0 0 -3 -1 0
-1 0 0 0 0 0 0 0 0 0 0 0 0 0 0 0 0 -2 -3 -2 -3 -3
-4 0 0 -2 0 0 0 0 0 0 0 0 0 0 0 0 -1 -2 -2 -1 -1 -1
0 0 0 0 0 0 0 0 0 -2 -1 -1 -1 -2 -1 -1 -1 -2 -1 -2 -2 -2
0 0 0 0 0 0 0 -2 -2 -2 -1 -1 -1 -1 -1 -1 -2 -2 -2 -2 -3 -2
Wind_Speed
37 38 39 41 43 45 46 45 43 39 36 35 33 32 32 33 31 30 29 30 29 28
36 37 38 40 42 44 43 41 37 34 34 34 33 33 31 31 29 27 26 27 27 27
35 37 39 41 43 43 40 36 32 32 33 32 32 32 31 30 28 27 27 26 27 27
38 39 39 40 40 38 35 32 31 31 31 32 30 27 27 27 27 27 28 28 29 31
39 37 37 38 35 33 30 30 29 29 30 28 28 26 26 27 28 29 32 33 34 35
39 36 35 34 31 30 28 29 28 26 27 29 28 27 27 29 31 34 36 37 37 37
37 36 34 31 30 30 28 29 29 29 30 29 28 29 29 31 33 34 35 35 34 34
36 33 33 32 31 29 29 31 30 30 29 28 28 28 31 34 35 35 36 35 34 34
35 33 31 30 30 30 31 31 30 30 29 30 30 29 33 35 36 37 37 37 36 36
34 33 32 30 30 31 32 32 31 31 31 31 31 31 35 37 37 38 37 38 38 39
33 32 31 31 31 32 32 32 32 31 31 32 32 33 35 38 37 36 37 38 39 39
31 31 30 31 32 32 31 31 31 31 32 32 33 34 36 36 36 36 37 36 36 36
29 29 30 31 31 30 30 30 31 32 31 31 31 33 34 35 35 36 35 36 36 35
28 28 29 29 30 30 30 30 31 30 30 30 30 32 31 33 33 35 37 38 36 33
Wind_Direction
332 332 331 330 328 326 324 323 323 323 322 322 322 322 322 320 318 317 316 313 312 311
332 332 331 330 330 328 327 326 326 325 325 325 325 323 323 321 318 318 317 314 312 310
334 333 332 331 330 330 330 330 330 331 331 332 330 327 325 324 324 320 318 317 314 310
334 334 334 333 334 335 338 338 337 337 335 333 334 333 330 328 324 322 320 318 314 310
335 336 336 337 338 340 341 342 341 339 336 335 333 331 328 325 322 319 315 312 311 308
336 338 339 340 341 342 341 340 340 341 339 337 336 333 330 326 321 316 313 311 309 308
338 338 340 341 341 341 343 343 342 340 338 335 334 331 329 326 323 319 316 315 314 313
341 341 343 344 343 344 342 341 340 338 338 338 335 333 330 326 322 319 317 315 314 312
346 347 347 346 346 344 343 342 340 339 337 335 334 333 330 326 322 318 316 313 313 312
345 346 348 348 346 344 342 341 340 339 337 335 333 332 328 325 322 318 315 312 310 309
346 346 347 346 345 343 343 342 341 340 340 337 335 333 330 327 324 321 316 312 309 308
345 345 346 346 345 345 345 344 344 343 341 338 336 335 333 331 327 323 319 316 313 308
347 346 346 346 346 347 347 347 347 345 344 343 340 339 337 335 331 325 322 317 312 309
346 347 348 348 349 349 349 349 349 349 348 346 345 342 341 339 336 327 317 310 306 302